Regional Weather Roundup
Issued by NWS Goodland, KS

Home | Current Version | Previous Version | Text Only | Print | Product List | Glossary On
Versions: 1 2 3 4 5 6 7 8 9 10 11 12 13 14 15 16 17 18 19 20 21 22 23 24 25 26 27 28 29 30 31 32 33 34 35 36 37 38 39 40 41 42 43 44 45 46 47 48 49 50
000
ASUS43 KGLD 260208
RWRGLD

GOODLAND FORECAST AREA HOURLY WEATHER ROUNDUP
NATIONAL WEATHER SERVICE GOODLAND KS
800 PM MDT MON SEP 25 2017

...OFFICIAL OBSERVATIONS...

CITY           SKY/WX    TMP DP  RH WIND       PRES   REMARKS
GOODLAND KS    LGT RAIN  48  47  96 N10       30.08R
HILL CITY KS   CLOUDY    53  53 100 N8        30.05R
IMPERIAL NEB   CLOUDY    48  46  93 NE10      30.06F
MCCOOK NEB     RAIN      50  49  96 N12       30.08R FOG
AKRON CO       CLOUDY    47  41  80 NE8       30.11R
BURLINGTON CO  CLOUDY    48  47  96 N10       30.10R
LIMON CO         N/A    N/A N/A N/A MISG      30.11R
$$

...UNOFFICIAL OBSERVATIONS...

CITY           SKY/WX    TMP DP  RH WIND       PRES   REMARKS
LENORA KS        N/A     51  32  48 MISG        N/A
NORTON KS      RAIN      50  46  87 N12G17    30.05R
SHARON SPRINGS   N/A     49  47  95 N7          N/A
KIT CARSON CO    N/A     48  45  89 MISG        N/A
YUMA CO        CLOUDY    45  45 100 N5        30.11R
$$




USA.gov is the U.S. government's official web portal to all federal, state and local government web resources and services.